Showing default

GALILEO 9 (205), 40889

Orbit data source: Space-Track

GALILEO 9 (205), 40889 is a payload satellite owned by GNSS Agency (ESA) that was launched on Fri, 11 Sep 2015 UTC via a SOYUZ-ST-B launch vehicle from the French Guiana (FRGUI). Payload-class satellites include a variety of spacecraft equipped with specific instruments for various scientific and technological missions. These include communications satellites like Starlink; space stations such as the ISS; scientific satellites like the Hubble; Earth observation satellites from companies like Planet Labs, Umbra, and HawkEye 360; GPS; miniature CubeSats for education and research; and military/defense satellites.

Loading next visibility...
Identifier
40889, 2015-045A
Orbit
Active
Country
Flag of ESAESA
Related business
Manufacturer
OHB
Mission
Operational Civil Navigation
Bus & Motor
GALILEOSAT, AOCS
Mass
733 kg wet, 660 kg dry
Launch date (UTC)
2015-09-11 (11 years ago)
Launch vehicle
SOYUZ-ST-B
Launch site
French Guiana (FRGUI)
Object type
Payload
Rocket body
Debris
Shape & HBR
Box + 2 Pan, 7.3 m
Radar Cross Section
9.223 m², Large (>1 m²)

Expand to show TLE details & history
Last TLE update: 2 weeks ago

TLE from 2 weeks ago
0 GALILEO 9 (205)
1 40889U 15045A   26115.63255192 -.00000038  00000-0  00000-0 0  9994
2 40889  54.9613 223.1764 0005159 266.9978  92.9342  1.67410754 66085
Epoch: 2026-04-25T15:10Z
TLE epoch observation values (Epoch: 2026-04-25T15:10:52.485Z)
Latitude
0.00001°
Longitude
141.79786°
Altitude
23,583.232 km
Speed
3.647 km/s
True Right ascension
14h 52m 39s
True Declination
0° 00' 00"
Sunlit
Object was in daylight at epoch
Visualization orbit readout
Latitude
Unknown
Longitude
Unknown
Altitude
Unknown
Speed
Unknown
Apparent Right ascension
Unknown
Apparent Declination
Unknown
Sunlit
N/A
Visualization observer readout
Local Sidereal Time
13:25:51
Azimuth
Unknown
Elevation
Unknown
Doppler factor
Unknown
Orbital elements
Apogee altitude
23,597.638 km
Perigee altitude
23,566.725 km
Semi-major axis
29,960.318 km
Eccentricity
0.00052
Inclination
54.9613°
RAAN
223.1764°
Arg. of periapsis
266.9978°
True anomaly
92.99324°
Mean anomaly
92.9342°
Eccentric anomaly
92.96372°
Mean motion
0.41853 °/min
Orbital period
860.16 mins
BSTAR
0
Loading maneuver chart data...
Computing Atmospheric mass density...
Loading historical data...
Loading historical data...
Loading historical data...
Loading historical data...
Loading historical data...
Loading historical data...
Loading historical data...
Other satellites on launch #45 in the year 2015 (2015-09-11 UTC)

Documentation

Showing up to 5 results
|